Chateaudun, France

2:52 PM CEST on July 27, 2017 (GMT +0200)
Chateaudun Air Base

Weather History for LFOC - April, 2014

Change the Weather History Date:

Saturday, April 5, 2014

  Actual Average Record
Temperature  
Mean Temperature 50 °F -  
Max Temperature 64 °F - - ()
Min Temperature 36 °F - - ()
Degree Days  
Heating Degree Days 15    
Moisture  
Dew Point 45 °F    
Average Humidity 78    
Maximum Humidity 100    
Minimum Humidity 39    
Precipitation  
Precipitation 0.01 in - - ()
Sea Level Pressure  
Sea Level Pressure 30.03 in    
Wind  
Wind Speed 5 mph ()    
Max Wind Speed 13 mph    
Max Gust Speed -    
Visibility 4.6 miles    
Events Fog    
T = Trace of Precipitation, MM = Missing Value Source: Averaged Metar Reports

Daily Weather History Graph

Daily Weather History Graph

Search for Another Location

Airport or City:

Trip Planner

Search our weather history database for the weather conditions in past years. The results will help you decide how hot, cold, wet, or windy it might be!

Date:

Astronomy

Apr. 05, 2014 Rise Set
Actual Time 7:25 AM CEST 8:30 PM CEST
Civil Twilight 6:53 AM CEST 9:01 PM CEST
Nautical Twilight 6:15 AM CEST 9:40 PM CEST
Astronomical Twilight 5:34 AM CEST 10:21 PM CEST
Moon 11:03 AM CEST (4/5) 1:43 AM CEST (4/5)
Length of Visible Light 14h 08m
Length of Day
13h 05m
Waxing Crescent, 32% of the Moon is Illuminated
Apr 5
Waxing Crescent
Apr 7
First Quarter
Apr 15
Full
Apr 22
Last Quarter
Apr 29
New

Hourly Weather History & Observations

Time (CEST) Temp. Windchill Dew Point Humidity Pressure Visibility Wind Dir Wind Speed Gust Speed Precip Events Conditions
12:00 AM 44 °F - 43 °F 94% 29.97 in 2 mi South 2.3 mph - -   Mist
12:00 AM 42.8 °F - 42.8 °F 100% 29.95 in 4.3 mi South 2.3 mph - N/A   Partly Cloudy
12:30 AM 42.8 °F - 41.0 °F 93% 29.95 in 5.6 mi SSW 2.3 mph - N/A   Unknown
1:00 AM 42 °F - 41 °F 97% 29.98 in 0 mi SSW 3.5 mph - - Fog Partial Fog
1:00 AM 42.8 °F 41.1 °F 41.0 °F 93% 29.95 in 1.8 mi SSW 3.5 mph - N/A Fog Patches of Fog
1:30 AM 42.8 °F 41.1 °F 41.0 °F 93% 29.95 in 3.7 mi SSW 3.5 mph - N/A Fog Patches of Fog
2:00 AM 42 °F - 41 °F 97% 29.99 in 4 mi SSW 3.5 mph - -   Clear
2:00 AM 42.8 °F 41.1 °F 41.0 °F 93% 29.98 in 4.3 mi SSW 3.5 mph - N/A   Unknown
2:30 AM 41.0 °F - 41.0 °F 100% 29.98 in 3.7 mi SSW 2.3 mph - N/A   Unknown
3:00 AM 40 °F - 40 °F 98% 30.00 in 3 mi WSW 3.5 mph - -   Clear
3:00 AM 41.0 °F 39.0 °F 39.2 °F 93% 29.98 in 3.1 mi WSW 3.5 mph - N/A   Mostly Cloudy
3:30 AM 42.8 °F - 42.8 °F 100% 29.98 in 2.5 mi Calm Calm - N/A   Mostly Cloudy
4:00 AM 42 °F - 42 °F 99% 30.00 in 1 mi South 1.2 mph - -   Mist
4:00 AM 42.8 °F - 42.8 °F 100% 29.98 in 1.7 mi Calm Calm - N/A Fog Patches of Fog
4:30 AM 41.0 °F - 41.0 °F 100% 29.98 in 0.2 mi Variable 1.2 mph - N/A Fog Fog
5:00 AM 40 °F - 39 °F 95% 30.01 in 1 mi SW 3.5 mph - - Fog Partial Fog
5:00 AM 39.2 °F 37.0 °F 39.2 °F 100% 29.98 in 0.9 mi SW 3.5 mph - N/A Fog Patches of Fog
5:30 AM 39.2 °F - 39.2 °F 100% 29.98 in - Variable 2.3 mph - N/A Fog Patches of Fog
6:00 AM 39 °F - 38 °F 95% 30.01 in 0 mi SW 3.5 mph - - Fog Partial Fog
6:00 AM 39.2 °F 37.0 °F 37.4 °F 93% 29.98 in 0.8 mi SW 3.5 mph - N/A Fog Patches of Fog
6:30 AM 37.4 °F 33.8 °F 35.6 °F 93% 29.98 in - WSW 4.6 mph - N/A Fog Patches of Fog
7:00 AM 38 °F - 38 °F 100% 30.02 in 1 mi WSW 4.6 mph - -   Mist
7:00 AM 37.4 °F 33.8 °F 37.4 °F 100% 29.98 in 1.4 mi WSW 4.6 mph - N/A   Mist
7:30 AM 37.4 °F - 37.4 °F 100% 29.98 in - Variable 2.3 mph - N/A Fog Fog
8:00 AM 38 °F - 37 °F 97% 30.04 in 0 mi West 3.5 mph - - Fog Partial Fog
8:00 AM 37.4 °F 34.9 °F 37.4 °F 100% 30.01 in 0.1 mi West 3.5 mph - N/A Fog Fog
8:30 AM 39.2 °F 35.9 °F 39.2 °F 100% 30.01 in 0.6 mi West 4.6 mph - N/A   Mist
9:00 AM 44 °F - 44 °F 100% 30.04 in 5 mi West 3.5 mph - -   Clear
9:00 AM 44.6 °F 43.1 °F 44.6 °F 100% 30.01 in 5.0 mi West 3.5 mph - N/A   Unknown
9:30 AM 46.4 °F 42.4 °F 44.6 °F 93% 30.04 in 6.2 mi West 8.1 mph - N/A   Unknown
10:00 AM 51 °F - 47 °F 80% 30.06 in 12 mi West 8.1 mph - -   Clear
10:00 AM 50.0 °F - 46.4 °F 87% 30.04 in 6.2 mi West 8.1 mph - N/A   Unknown
10:30 AM 53.6 °F - 44.6 °F 72% 30.04 in 6.2 mi West 5.8 mph - N/A   Unknown
11:00 AM 56 °F - 44 °F 53% 30.06 in 37 mi West 8.1 mph - -   Clear
11:00 AM 55.4 °F - 42.8 °F 63% 30.06 in 6.2 mi West 8.1 mph - N/A   Unknown
11:30 AM 57.2 °F - 42.8 °F 59% 30.06 in 6.2 mi WSW 5.8 mph - N/A   Unknown
12:00 PM 58 °F - 42 °F 44% 30.07 in 37 mi WSW 6.9 mph - -   Clear
12:00 PM 57.2 °F - 42.8 °F 59% 30.06 in 6.2 mi WSW 6.9 mph - N/A   Unknown
12:30 PM 59.0 °F - 42.8 °F 55% 30.06 in 6.2 mi SW 9.2 mph - N/A   Unknown
1:00 PM 60 °F - 42 °F 41% 30.07 in 37 mi SW 10.4 mph - -   Clear
1:00 PM 60.8 °F - 42.8 °F 52% 30.06 in 6.2 mi SW 10.4 mph - N/A   Unknown
1:30 PM 60.8 °F - 41.0 °F 48% 30.06 in 6.2 mi WSW 10.4 mph - N/A   Unknown
2:00 PM 61 °F - 42 °F 39% 30.07 in 37 mi West 12.7 mph - -   Clear
2:00 PM 60.8 °F - 42.8 °F 52% 30.06 in 6.2 mi West 12.7 mph - N/A   Unknown
2:30 PM 60.8 °F - 46.4 °F 59% 30.06 in 6.2 mi West 11.5 mph - N/A   Unknown
3:00 PM 62 °F - 48 °F 49% 30.06 in 12 mi WSW 10.4 mph - -   Clear
3:00 PM 62.6 °F - 48.2 °F 59% 30.04 in 6.2 mi WSW 10.4 mph - N/A   Mostly Cloudy
3:30 PM 62.6 °F - 48.2 °F 59% 30.04 in 6.2 mi West 11.5 mph - N/A   Partly Cloudy
4:00 PM 62 °F - 49 °F 53% 30.05 in 37 mi West 9.2 mph - -   Clear
4:00 PM 62.6 °F - 50.0 °F 63% 30.04 in 6.2 mi West 9.2 mph - N/A   Mostly Cloudy
4:30 PM 64.4 °F - 50.0 °F 59% 30.04 in 6.2 mi WSW 8.1 mph - N/A   Mostly Cloudy
5:00 PM 62 °F - 48 °F 51% 30.05 in 37 mi West 11.5 mph - -   Clear
5:00 PM 60.8 °F - 48.2 °F 63% 30.04 in 6.2 mi West 11.5 mph - N/A   Mostly Cloudy
5:30 PM 60.8 °F - 48.2 °F 63% 30.04 in 6.2 mi West 10.4 mph - N/A   Overcast
6:00 PM 61 °F - 49 °F 56% 30.06 in 37 mi West 11.5 mph - -   Clear
6:00 PM 60.8 °F - 50.0 °F 68% 30.04 in 6.2 mi West 11.5 mph - N/A   Overcast
6:30 PM 60.8 °F - 50.0 °F 68% 30.06 in 6.2 mi WSW 8.1 mph - N/A   Overcast
7:00 PM 60 °F - 50 °F 61% 30.06 in 37 mi WSW 6.9 mph - -   Clear
7:00 PM 60.8 °F - 50.0 °F 68% 30.04 in 6.2 mi WSW 6.9 mph - N/A   Overcast
7:30 PM 59.0 °F - 50.0 °F 72% 30.06 in 6.2 mi West 6.9 mph - N/A   Overcast
8:00 PM 58 °F - 50 °F 68% 30.07 in 37 mi WSW 5.8 mph - -   Clear
8:00 PM 59.0 °F - 50.0 °F 72% 30.06 in 6.2 mi WSW 5.8 mph - N/A   Overcast
8:30 PM 57.2 °F - 50.0 °F 77% 30.06 in 6.2 mi WSW 8.1 mph - N/A   Overcast
9:00 PM 57 °F - 50 °F 71% 30.09 in 37 mi WSW 6.9 mph - -   Clear
9:00 PM 57.2 °F - 50.0 °F 77% 30.06 in 6.2 mi WSW 6.9 mph - N/A   Overcast
9:30 PM 57.2 °F - 50.0 °F 77% 30.09 in 6.2 mi WSW 6.9 mph - N/A   Unknown
10:00 PM 57 °F - 51 °F 72% 30.10 in 37 mi SW 5.8 mph - -   Clear
10:00 PM 57.2 °F - 50.0 °F 77% 30.09 in 6.2 mi SW 5.8 mph - N/A   Unknown
10:30 PM 57.2 °F - 51.8 °F 82% 30.09 in 6.2 mi SW 4.6 mph - N/A   Unknown
11:00 PM 56 °F - 51 °F 78% 30.10 in 37 mi SSW 5.8 mph - -   Clear
11:00 PM 55.4 °F - 51.8 °F 88% 30.09 in 6.2 mi SSW 5.8 mph - N/A   Unknown
11:30 PM 55.4 °F - 51.8 °F 88% 30.09 in 6.2 mi SW 5.8 mph - N/A   Overcast